Location: Newark
(33.6439°N, 114.9881°W)
Time: 11:13:12
(UTC+00:00)

Transit 2A Rocket - Pass Details

Date: 27 August 2019
Orbit: 592 x 911 km, 66.7° (Epoch: 22 September)

Event Time Altitude Azimuth Distance (km) Brightness Sun altitude
Rises 11:34:02 0° 324° (NW) 2,913 7.9 -19.6°
Reaches altitude 10° 11:36:29 10° 316° (NW) 1,971 7.0 -19.2°
Enters shadow 11:37:49 18° 306° (NW) 1,501 6.3 -18.9°
Exits shadow 11:46:36 - 175° (S) 2,759 7.7 -17.3°
Sets 11:46:44 0° 175° (S) 2,812 7.7 -17.3°
